Location: Highland Meadows Observing Site
(48.4428°N, 114.5461°W)
Time: 17:37:24
(UTC-07:00)

Gurwin Techsat 1B - Visible Passes

Search period start: 20 February 2017 00:00
Search period end: 02 March 2017 00:00
Orbit: 812 x 814 km, 98.6° (Epoch: 20 February)

Date Brightness Start Highest point End Pass type
(mag) Time Alt. Az. Time Alt. Az. Time Alt. Az.
20 Feb 11.1 04:25:26 10° NNW 04:25:34 11° NNW 04:25:34 11° NNW visible
21 Feb 11.1 04:02:08 10° N 04:02:36 12° N 04:02:36 12° N visible
22 Feb 11.1 03:39:03 10° N 03:39:37 13° N 03:39:37 13° N visible
23 Feb 11.2 03:16:04 10° N 03:16:39 13° N 03:16:39 13° N visible
24 Feb 11.4 02:53:11 10° NNE 02:53:40 13° NNE 02:53:40 13° NNE visible
24 Feb 11.0 04:34:27 10° NNW 04:34:53 11° NNW 04:34:53 11° NNW visible
25 Feb 11.5 02:30:27 10° NNE 02:30:42 11° NNE 02:30:42 11° NNE visible
25 Feb 10.9 04:11:04 10° N 04:11:55 14° NNW 04:11:55 14° NNW visible
26 Feb 10.9 03:47:54 10° N 03:48:57 15° N 03:48:57 15° N visible
27 Feb 11.0 03:24:53 10° N 03:25:59 16° N 03:25:59 16° N visible
28 Feb 11.1 03:01:58 10° NNE 03:03:01 16° NNE 03:03:01 16° NNE visible
28 Feb 10.9 04:43:32 10° NNW 04:44:13 12° NNW 04:44:13 12° NNW visible
01 Mar 11.2 02:39:11 10° NNE 02:40:02 15° NNE 02:40:02 15° NNE visible
01 Mar 10.8 04:20:02 10° N 04:21:15 15° NNW 04:21:15 15° NNW visible
